Location: Balsareny
(41.8670°N, 1.8830°E)
Time: 01:54:55
(UTC+02:00)

Envisat - Pass Details

Date: 21 August 2024
Orbit: 762 x 764 km, 98.3° (Epoch: 08 September)

Event Time Altitude Azimuth Distance (km) Brightness Sun altitude
Rises 05:13:22 0° 11° (NNE) 3,234 7.0 -19.6°
Reaches altitude 10° 05:15:41 10° 11° (N) 2,304 6.1 -19.3°
Maximum altitude 05:20:45 79° 286° (WNW) 780 2.9 -18.5°
Enters shadow 05:23:32 27° 202° (SSW) 1,422 3.9 -18.1°
